[[{"header":{"parameterUnit":"m.s-1","parameterCategory":1,"la1":30.2991,"la2":30.254,"lo1":-89.0895,"lo2":-89.0444,"dy":0.0017,"dx":0.0017,"nx":28,"ny":28,"refTime":"2023-09-22T09:00:00:Z","depth":0,"parameterNumber":2,"parameterNumberName":"U-component_of_WINDS"},"data":[0,0,0,0,0,0,0,0,0,0,0,0,0,0,0,0,0,0,0,0,0,0,0,0,0,0,0,0,0,0,0,0,0,0,0,0,0,0,0,0,0,0,0,0,0,0,0,0,0,0,0,0,0,0,0,0,0,0,-3.4369,-3.437,0,-3.4389,-3.4389,-3.4389,-3.4283,-3.428,-3.4277,-3.4274,-3.4298,-3.4302,-3.4305,0,0,0,0,0,0,0,0,0,0,0,0,0,-3.4246,-3.4249,-3.4369,-3.437,-3.437,-3.4389,-3.4389,-3.4389,-3.4284,-3.428,-3.4277,-3.4273,-3.4297,-3.4301,-3.4306,0,0,0,0,0,0,0,0,0,0,0,0,0,-3.4286,-3.425,-3.4369,-3.4319,-3.4315,-3.4389,-3.4389,-3.4389,-3.4285,-3.428,-3.4276,-3.4271,-3.4296,-3.4301,-3.4306,-3.443,0,0,-3.4322,-3.4324,0,0,0,0,0,0,0,0,-3.4284,-3.4291,-3.4327,-3.4323,-3.4318,-3.4329,-3.4354,-3.4403,-3.4286,-3.4296,-3.4274,-3.4269,-3.4313,-3.4316,-3.433,-3.4431,-3.4432,-3.4322,-3.4326,-3.4328,-3.4329,0,0,0,0,0,0,0,-3.4282,-3.429,-3.4377,-3.4327,-3.4322,-3.4298,-3.4299,-3.4363,-3.433,-3.4295,-3.4287,-3.4291,-3.4309,-3.4325,-3.433,-3.4432,-3.4322,-3.4327,-3.433,-3.4332,-3.4639,-3.4644,0,0,0,0,0,0,-3.4285,-3.4288,-3.4376,-3.4378,-3.429,-3.4304,-3.4304,-3.433,-3.4329,-3.4324,-3.4295,-3.4286,-3.4318,-3.4324,-3.433,-3.4476,-3.4328,-3.4333,-3.4336,-3.4634,-3.464,-3.4645,0,0,0,0,0,0,-3.4283,-3.4294,-3.4376,-3.4331,-3.4339,-3.4311,-3.4341,-3.4333,-3.4348,-3.4329,-3.4323,-3.4317,-3.4315,-3.4323,-3.4406,-3.4476,-3.4335,-3.434,-3.4628,-3.4636,-3.4643,-3.477,0,0,0,0,0,0,-3.428,-3.4294,-3.4339,-3.4333,-3.4342,-3.445,-3.4345,-3.4337,-3.4357,-3.4346,-3.4348,-3.4343,-3.4312,-3.4399,-3.4411,-3.448,-3.4344,-3.4622,-3.4631,-3.464,-3.4759,-3.478,-3.4799,0,0,0,0,0,-3.4275,-3.4374,-3.4342,-3.4353,-3.4398,-3.4454,-3.446,-3.442,-3.4363,-3.441,-3.4397,-3.4343,-3.4466,-3.4408,-3.4421,-3.4493,-3.4617,-3.4629,-3.464,-3.475,-3.4776,-3.4798,0,0,0,0,0,0,-3.439,-3.4372,-3.4336,-3.4435,-3.4447,-3.4436,-3.4493,-3.4449,-3.4478,-3.4466,-3.4418,-3.4419,-3.4512,-3.451,-3.4446,-3.4614,-3.4532,-3.4546,-3.4611,-3.4636,-3.4656,-3.4654,-3.4348,0,0,0,0,0,-3.4426,-3.4472,-3.4455,-3.4544,-3.4552,-3.4522,-3.4545,-3.4514,-3.4524,-3.4529,-3.4523,-3.4537,-3.4579,-3.4607,-3.4644,-3.4758,-3.4759,-3.4815,-3.4835,-3.4851,-3.4864,-3.4927,-3.4953,-3.4682,-3.4682,-3.4682,0,0,-3.4502,-3.4499,-3.453,-3.4567,-3.4572,-3.4623,-3.4527,-3.4583,-3.4621,-3.4538,-3.4616,-3.4613,-3.4626,-3.4726,-3.4769,-3.4728,-3.4939,-3.4865,-3.4879,-3.4883,-3.4942,-3.4967,-3.499,-3.469,-3.4689,-3.4688,0,0,-3.4667,-3.4668,-3.4743,-3.4751,-3.4761,-3.4741,-3.4759,-3.4756,-3.475,-3.4828,-3.4767,-3.4812,-3.4885,-3.4897,-3.4913,-3.5086,-3.5038,-3.5099,-3.5203,-3.5266,-3.5287,-3.5305,-3.5369,-3.5392,-3.5112,-3.5113,-3.5113,0,-3.4761,-3.4833,-3.4788,-3.485,-3.4869,-3.4796,-3.4873,-3.4883,-3.4905,-3.4921,-3.4874,-3.4965,-3.4968,-3.5071,-3.5113,-3.5128,-3.5149,-3.5099,-3.5287,-3.5305,-3.5322,-3.5382,-3.5406,-3.512,-3.5119,-3.5119,-3.5118,0,-3.4949,-3.5,-3.506,-3.5083,-3.5109,-3.5178,-3.5146,-3.5177,-3.5145,-3.5131,-3.5213,-3.5214,-3.5252,-3.5274,-3.5243,-3.5374,-3.5348,-3.5295,-3.5211,-3.5356,-3.5412,-3.5435,-3.5131,-3.5128,-3.5126,-3.5124,0,0,-3.5185,-3.5183,-3.5206,-3.5216,-3.5223,-3.5263,-3.533,-3.5366,-3.5395,-3.5414,-3.5471,-3.5535,-3.5486,-3.5505,-3.5474,-3.5529,-3.5669,-3.5469,-3.5469,-3.5508,-3.5816,-3.5857,-3.5884,-3.5637,-3.5641,-3.5645,-3.5816,0,-3.5347,-3.546,-3.5423,-3.5539,-3.5587,-3.552,-3.5579,-3.5591,-3.5581,-3.5622,-3.561,-3.5657,-3.5588,-3.5599,-3.565,-3.5641,-3.573,-3.5628,-3.5692,-3.5695,-3.5692,-3.5913,-3.5956,-3.6117,-3.5837,-3.5841,-3.5843,0,-3.5551,-3.5577,-3.5698,-3.5699,-3.5718,-3.5771,-3.5802,-3.5842,-3.5855,-3.5844,-3.5866,-3.5825,-3.5894,-3.581,-3.5906,-3.5837,-3.5861,-3.5861,-3.5867,-3.5872,-3.5778,-3.5926,-3.6167,-3.6192,-3.5877,-3.5874,-3.5872,0,-3.5713,-3.5779,-3.586,-3.5871,-3.5873,-3.5913,-3.5916,-3.5924,-3.5949,-3.5978,-3.5994,-3.603,-3.6051,-3.6081,-3.6053,-3.5994,-3.6154,-3.6067,-3.6148,-3.615,-3.6185,-3.6184,-3.6436,-3.62,-3.6199,-3.6199,-3.6198,0,-3.5899,-3.5976,-3.5933,-3.5983,-3.6069,-3.6026,-3.6113,-3.6108,-3.6117,-3.6167,-3.6112,-3.616,-3.6119,-3.6165,-3.6143,-3.6227,-3.6237,-3.6231,-3.6225,-3.6237,-3.6238,-3.6252,-3.6241,-3.6205,-3.6204,-3.6203,-3.6201,0,-3.6094,-3.6068,-3.6153,-3.6148,-3.6149,-3.6213,-3.621,-3.6257,-3.6243,-3.6308,-3.632,-3.6299,-3.6351,-3.6325,-3.6378,-3.6364,-3.6473,-3.6451,-3.6469,-3.6463,-3.6547,-3.654,-3.6818,-3.6853,-3.6594,-3.6596,-3.6598,0,-3.6214,-3.6272,-3.6274,-3.6303,-3.631,-3.6357,-3.6382,-3.6345,-3.6374,-3.6395,-3.6441,-3.6487,-3.6522,-3.6608,-3.6598,-3.664,-3.6619,-3.6714,-3.6625,-3.6636,-3.6623,-3.662,-3.6627,-3.6732,-3.6735,-3.6737,-3.6739,0,-3.6431,-3.6416,-3.6454,-3.6489,-3.6521,-3.6546,-3.6567,-3.6595,-3.6558,-3.6594,-3.6645,-3.6672,-3.6727,-3.6775,-3.6812,-3.6817,-3.6774,-3.6768,-3.6789,-3.6802,-3.6811,-3.6809,-3.6519,-3.6761,-3.6759,-3.6757,-3.6756,-3.6755,-3.6593,-3.6643,-3.6653,-3.6697,-3.671,-3.6731,-3.6776,-3.6769,-3.681,-3.6851,-3.6827,-3.6888,-3.6903,-3.6948,-3.6959,-3.7008,-3.6971,-3.7002,-3.7009,-3.7018,-3.703,-3.6802,-3.7015,-3.7014,-3.7014,-3.7013,-3.7012,0,-3.6809,-3.6813,-3.6854,-3.6886,-3.6922,-3.6877,-3.6899,-3.6933,-3.6987,-3.7004,-3.7039,-3.71,-3.7147,-3.7143,-3.7186,-3.7227,-3.7208,-3.724,-3.7237,-3.7239,-3.706,-3.7038,-3.7254,-3.7254,-3.7254,-3.7254,-3.7254,-3.7254,-3.6925,-3.7007,-3.6994,-3.7082,-3.7085,-3.7144,-3.716,-3.7181,-3.7195,-3.7265,-3.7303,-3.7299,-3.7309,-3.7353,-3.7395,-3.7393,-3.7413,-3.7452,-3.7443,-3.7275,-3.7252,-3.7229,-3.7208,-3.7456,-3.7457,-3.7618,-3.762,-3.7621]},{"header":{"parameterUnit":"m.s-1","parameterCategory":1,"la1":30.2991,"la2":30.254,"lo1":-89.0895,"lo2":-89.0444,"dy":0.0017,"dx":0.0017,"nx":28,"ny":28,"refTime":"2023-09-22T09:00:00:Z","depth":0,"parameterNumber":3,"parameterNumberName":"V-component_of_WINDS"},"data":[0,0,0,0,0,0,0,0,0,0,0,0,0,0,0,0,0,0,0,0,0,0,0,0,0,0,0,0,0,0,0,0,0,0,0,0,0,0,0,0,0,0,0,0,0,0,0,0,0,0,0,0,0,0,0,0,0,0,0.2682,0.2683,0,0.2713,0.2713,0.2714,0.2766,0.2767,0.2768,0.2769,0.2798,0.2798,0.2797,0,0,0,0,0,0,0,0,0,0,0,0,0,0.2666,0.2666,0.2682,0.2683,0.2683,0.2713,0.2713,0.2714,0.2766,0.2767,0.2768,0.2769,0.2798,0.2798,0.2797,0,0,0,0,0,0,0,0,0,0,0,0,0,0.2683,0.2666,0.2682,0.2713,0.2716,0.2713,0.2713,0.2714,0.2766,0.2767,0.2769,0.277,0.2798,0.2798,0.2797,0.2766,0,0,0.2797,0.2797,0,0,0,0,0,0,0,0,0.2682,0.2683,0.2708,0.2711,0.2714,0.2737,0.2718,0.2731,0.2765,0.2747,0.2769,0.2771,0.2776,0.2778,0.278,0.2768,0.2769,0.2797,0.2797,0.2796,0.2796,0,0,0,0,0,0,0,0.268,0.2682,0.2694,0.2708,0.2712,0.2724,0.2728,0.2721,0.2753,0.2748,0.2752,0.2755,0.2778,0.278,0.2781,0.2769,0.2797,0.2797,0.2796,0.2796,0.2731,0.2729,0,0,0,0,0,0,0.2675,0.2681,0.2693,0.2695,0.2701,0.2723,0.2728,0.2728,0.2753,0.2758,0.2754,0.2758,0.278,0.2782,0.2783,0.2746,0.2796,0.2796,0.2796,0.2732,0.273,0.2729,0,0,0,0,0,0,0.2675,0.2676,0.2692,0.2689,0.2692,0.2722,0.2722,0.2728,0.273,0.2757,0.2763,0.275,0.2781,0.2783,0.277,0.2748,0.2796,0.2796,0.2734,0.2732,0.2729,0.2673,0,0,0,0,0,0,0.2674,0.2675,0.2664,0.2689,0.2692,0.2679,0.2721,0.2728,0.273,0.2735,0.2755,0.276,0.2783,0.277,0.2769,0.2748,0.2796,0.2736,0.2733,0.273,0.2677,0.2669,0.2662,0,0,0,0,0,0.2673,0.2647,0.2664,0.2665,0.2679,0.2678,0.268,0.2707,0.2728,0.2717,0.2734,0.276,0.2751,0.2768,0.2768,0.2746,0.2738,0.2734,0.273,0.268,0.267,0.2662,0,0,0,0,0,0,0.2619,0.2651,0.2669,0.2651,0.2661,0.2687,0.2673,0.2696,0.27,0.2705,0.2737,0.2742,0.2723,0.2734,0.2753,0.2717,0.2748,0.2744,0.271,0.2701,0.2694,0.269,0.2796,0,0,0,0,0,0.2605,0.2602,0.263,0.2611,0.2615,0.2643,0.2644,0.2664,0.2676,0.268,0.2696,0.2706,0.2706,0.2704,0.2705,0.268,0.2683,0.2665,0.2657,0.2651,0.2646,0.2631,0.2623,0.2717,0.2717,0.2717,0,0,0.2576,0.2593,0.2589,0.26,0.2611,0.2606,0.2647,0.264,0.2636,0.2679,0.2667,0.2679,0.2692,0.2672,0.2664,0.268,0.2622,0.2646,0.2641,0.264,0.2627,0.2618,0.261,0.2714,0.2715,0.2715,0,0,0.2519,0.2533,0.2517,0.2527,0.2543,0.2562,0.2558,0.258,0.259,0.2579,0.261,0.2606,0.2605,0.2612,0.2615,0.2561,0.2584,0.2561,0.2521,0.2506,0.2499,0.2492,0.247,0.2462,0.2557,0.2557,0.2557,0,0.2481,0.2475,0.2506,0.2497,0.25,0.254,0.2523,0.2531,0.2546,0.2546,0.2565,0.2563,0.2575,0.2556,0.2543,0.2545,0.254,0.2557,0.2497,0.2491,0.2486,0.2465,0.2457,0.2554,0.2554,0.2554,0.2555,0,0.2425,0.2421,0.2406,0.242,0.2422,0.2409,0.2437,0.2435,0.2455,0.2471,0.2458,0.2474,0.2478,0.2476,0.2495,0.2459,0.2468,0.2492,0.2523,0.2473,0.2454,0.2446,0.2549,0.255,0.2551,0.2552,0,0,0.2334,0.2365,0.2359,0.2364,0.2384,0.2381,0.237,0.2374,0.2371,0.238,0.2369,0.2368,0.2389,0.2393,0.2414,0.2401,0.2354,0.2426,0.2427,0.241,0.2312,0.2292,0.2282,0.237,0.2369,0.2368,0.231,0,0.2279,0.2262,0.2289,0.2265,0.226,0.2297,0.2287,0.2298,0.2313,0.231,0.2327,0.2324,0.2354,0.2356,0.2346,0.2362,0.2334,0.2367,0.2359,0.2358,0.2351,0.2273,0.2252,0.2196,0.2303,0.2302,0.2301,0,0.2213,0.2219,0.2193,0.2214,0.2213,0.2203,0.2208,0.2206,0.2219,0.223,0.2235,0.2259,0.2248,0.2281,0.2265,0.2286,0.2285,0.2293,0.2291,0.2289,0.2324,0.2266,0.2179,0.2169,0.229,0.2291,0.2292,0,0.2145,0.2147,0.2131,0.2136,0.216,0.2152,0.2161,0.2175,0.2176,0.218,0.2181,0.2184,0.2185,0.2187,0.2211,0.2233,0.2191,0.2227,0.2198,0.2197,0.2185,0.2185,0.2094,0.2189,0.219,0.219,0.219,0,0.2079,0.2062,0.2101,0.2091,0.2072,0.2104,0.2084,0.2097,0.2109,0.2102,0.2136,0.2127,0.2162,0.2157,0.2177,0.2159,0.216,0.2167,0.2172,0.2163,0.2161,0.216,0.2163,0.2188,0.2188,0.2189,0.2189,0,0.1999,0.2025,0.201,0.2035,0.204,0.2025,0.2045,0.2036,0.2054,0.2044,0.2043,0.2071,0.2067,0.2092,0.2093,0.2106,0.2078,0.2091,0.2073,0.2076,0.2045,0.2047,0.1948,0.1935,0.2041,0.204,0.2039,0,0.1954,0.1941,0.1964,0.1962,0.1969,0.1965,0.1966,0.1997,0.1996,0.2009,0.1998,0.1997,0.1998,0.199,0.2009,0.2009,0.2021,0.1986,0.2021,0.2011,0.2016,0.2016,0.2013,0.1978,0.1976,0.1975,0.1975,0,0.187,0.1883,0.1883,0.1887,0.1887,0.1891,0.1898,0.1894,0.1928,0.1925,0.1922,0.1922,0.1923,0.1921,0.1925,0.1934,0.1958,0.1964,0.1957,0.1945,0.1934,0.1937,0.205,0.1965,0.1966,0.1967,0.1967,0.1968,0.1804,0.1794,0.1808,0.1806,0.1814,0.182,0.1812,0.1829,0.1827,0.183,0.1849,0.1841,0.1853,0.1862,0.1868,0.1862,0.1878,0.1869,0.1866,0.1862,0.1855,0.1938,0.1863,0.1864,0.1864,0.1864,0.1864,0,0.1719,0.173,0.1729,0.1737,0.1735,0.176,0.1769,0.1765,0.1758,0.1768,0.1768,0.1763,0.1761,0.178,0.178,0.1772,0.1783,0.177,0.177,0.1771,0.1842,0.1847,0.1761,0.1761,0.1761,0.1761,0.1761,0.1761,0.1675,0.1657,0.1672,0.1659,0.1671,0.1664,0.1666,0.1671,0.1678,0.1671,0.167,0.1683,0.1696,0.1697,0.1696,0.1701,0.1698,0.1681,0.169,0.1756,0.1766,0.1775,0.178,0.1681,0.1681,0.1619,0.1618,0.1618]}]]